Location: Caltech
(34.1382°N, 118.1253°W)
Time: 21:33:16
(UTC-07:00)

Tiros 1 despin weight - Visible Passes

Search period start: 20 April 2014 00:00
Search period end: 30 April 2014 00:00
Orbit: 602 x 653 km, 48.2° (Epoch: 19 April)

Date Brightness Start Highest point End Pass type
(mag) Time Alt. Az. Time Alt. Az. Time Alt. Az.
23 Apr ? 05:36:18 10° S 05:39:46 22° SE 05:43:13 10° E visible
25 Apr ? 04:34:54 10° SSE 04:37:39 16° SE 04:40:23 10° E visible
26 Apr ? 04:53:51 15° SSW 04:57:06 36° SE 05:01:13 10° ENE visible
27 Apr ? 03:35:40 11° SE 03:35:40 11° SE 03:36:51 10° ESE visible
27 Apr ? 05:12:56 15° SW 05:16:43 83° SE 05:21:11 10° NE visible
28 Apr ? 03:54:40 26° SE 03:54:54 26° SE 03:58:39 10° ENE visible
28 Apr ? 05:32:06 10° WSW 05:36:28 48° NNW 05:40:49 10° NE visible
29 Apr ? 04:13:34 50° S 04:14:25 60° SE 04:18:51 10° ENE visible
